SCP
0 0 0 0 -0 -0 -0 -0 -0 -0 -0 -0 -0 -0 0 0 0 -0 -0 -0 -0 -0 0 0 -0 -0 0 -0 0 0 0 -0 -0 -0 -0 -0 -0 -0 -0 -0 -0 -0 -0 -0 -0 -0 -0 -0 -0
0 0 0 0 0 -0 -0 -0 -0 -0 -0 -0 -0 0 0 -0 0 0 -0 -0 -0 -0 0 -0 -0 -0 -0 0 -0 -0 -0 -0 -0 -0 -0 -0 -0 -0 -0 -0 -0 -0 -0 -0 -0 -0 -0 -0 -0
0 0 0 0 0 -0 -0 -0 -0 -0 -0 -0 -0 0 0 -0 -0 0 -0 -0 -0 0 -0 0 0 -0 -0 -0 -0 -0 0 -0 -0 -0 -0 -0 -0 -0 -0 -0 -0 -0 -0 -0 -0 -0 -0 -0 -0
0 0 0 0 -0 -0 -0 -0 -0 -0 -0 0 0 -0 -0 0 0 -0 0 0 0 -0 -0 -0 0 0 0 -0 -0 0 -0 -0 -0 -0 -0 -0 -0 -0 -0 -0 -0 -0 -0 -0 -0 -0 -0 -0 -0
0 0 0 -0 -0 -0 0 0 -0 -0 -0 -0 0 -0 -0 -0 -0 -0 0 0 0 0 -0 0 0 0 0 -0 -0 -0 -0 -0 -0 -0 -0 -0 -0 -0 -0 -0 -0 -0 -0 -0 -0 -0 -0 -0 -0
0 0 0 -0 -0 -0 0 0 0 -0 -0 -0 0 -0 -0 -0 0 -0 -0 0 0 0 -0 -0 -0 0 -0 -0 -0 -0 0 0 -0 -0 -0 -0 -0 -0 -0 -0 -0 -0 -0 -0 -0 -0 0 -0 -0
0 0 0 0 -0 -0 0 -0 0 -0 -0 -0 -0 -0 -0 0 0 -0 -0 -0 -0 -0 -0 0 0 0 0 0 -0 0 0 -0 -0 -0 -0 -0 -0 -0 -0 -0 -0 -0 -0 -0 -0 0 0 -0 -0
0 0 0 0 0 0 0 -0 0 0 -0 0 0 -0 -0 -0 -0 -0 -0 -0 -0 -0 0 -0 -0 -0 -0 -0 0 -0 -0 -0 -0 -0 -0 -0 -0 -0 -0 0 0 0 -0 -0 0 0 0 -0 0
0 0 0 0 0 0 0 0 0 0 0 0 -0 0 0 -0 -0 -0 -0 -0 -0 0 0 0 0 0 0 -0 -0 -0 -0 -0 -0 -0 -0 0 0 0 0 0 0 0 -0 -0 0 0 0 0 0
0 0 0 0 0 0 0 0 0 0 0 0 -0 0 -0 -0 -0 -0 -0 -0 -0 -0 0 -0 0 -0 0 -0 -0 -0 -0 -0 -0 -0 -0 0 0 0 0 0 0 0 0 0 0 0 0 0 0
0 0 0 0 0 0 0 0 0 0 0 0 0 0 -0 -0 -0 -0 -0 -0 -0 -0 -0 -0 -0 0 -0 0 0 0 0 0 0 0 0 0 0 0 0 0 0 0 0 0 0 0 0 0 0
0 0 0 0 0 0 0 0 0 0 0 0 0 0 -0 -0 -0 -0 -0 -0 -0 -0 -0 -0 -0 -0 -0 0 0 -0 0 -0 0 0 -0 0 0 0 0 0 0 0 0 0 0 0 0 0 0
0 0 0 0 0 0 0 0 0 0 0 0 0 0 0 -0 -0 -0 -0 -0 -0 -0 -0 -0 -0 -0 -0 -0 0 0 0 -0 -0 -0 -0 0 0 0 0 0 0 0 0 0 0 0 0 0 0
0 0 0 0 0 0 0 0 0 0 0 0 0 0 0 0 -0 -0 -0 -0 -0 -0 -0 -0 -0 -0 -0 -0 -0 0 0 -0 0 0 0 -0 0 0 0 0 0 0 0 0 0 0 0 0 0
0 0 0 0 0 0 0 0 0 0 0 0 0 0 0 -0 0 -0 -0 -0 -0 -0 -0 -0 -0 -0 -0 -0 -0 0 0 0 0 0 0 -0 0 0 0 0 0 0 0 0 0 0 0 0 0
0 0 0 0 0 0 0 0 0 0 0 0 0 -0 0 -0 0 0 0 0 0 0 0 0 0 0 0 0 0 0 0 0 0 0 0 0 0 0 0 0 0 0 0 0 0 0 0 0 0
0 0 0 0 0 0 0 0 0 0 0 0 0 0 0 0 0 0 0 0 0 0 0 0 0 0 0 0 0 0 0 0 0 0 0 0 0 0 0 0 0 0 0 0 0 0 0 0 0
0 0 0 0 0 0 0 0 0 0 0 0 0 0 0 0 0 0 0 0 0 0 0 0 0 0 0 0 0 0 0 0 0 0 0 0 0 0 0 0 0 0 0 0 0 0 0 0 0
0 0 0 0 0 0 0 0 0 0 0 0 0 0 0 0 0 0 0 0 0 0 0 0 0 0 0 0 0 0 0 0 0 0 0 0 0 0 0 0 0 0 0 0 0 0 0 0 0
0 0 0 0 0 0 0 0 0 0 0 0 0 0 0 0 0 0 0 0 0 0 0 0 0 0 0 0 0 0 0 0 0 0 0 0 0 0 0 0 0 0 0 0 0 0 0 0 0
0 0 0 0 0 0 0 0 0 0 0 0 0 0 0 0 0 0 0 0 0 0 0 0 0 0 0 0 0 0 0 0 0 0 0 0 0 0 0 0 0 0 0 0 0 0 0 0 0
0 0 0 0 0 0 0 0 0 0 0 0 0 0 0 0 0 0 0 0 0 0 0 0 0 0 0 0 0 0 0 0 0 0 0 0 0 0 0 0 0 0 0 0 0 0 0 0 0
0 0 0 0 0 0 0 0 0 0 0 0 0 0 0 0 0 0 0 0 0 0 0 0 0 0 0 0 0 0 0 0 0 0 0 0 0 0 0 0 0 0 0 0 0 0 0 0 0
0 0 0 0 0 0 0 0 0 0 0 0 0 0 0 0 0 0 0 0 0 0 0 0 0 0 0 0 0 0 0 0 0 0 0 0 0 0 0 0 0 0 0 0 0 0 0 0 0
0 0 0 0 0 0 0 0 0 0 0 0 0 0 0 0 0 0 0 0 0 0 0 0 0 0 0 0 0 0 0 0 0 0 0 0 0 0 0 0 0 0 0 0 0 0 0 0 0
0 0 0 0 0 0 0 0 0 0 0 0 0 0 0 0 0 0 0 0 0 0 0 0 0 0 0 0 0 0 0 0 0 0 0 0 0 0 0 0 0 0 0 0 0 0 0 0 0
0 0 0 0 0 0 0 0 0 0 0 0 0 0 0 0 0 0 0 0 0 0 0 0 0 0 0 0 0 0 0 0 0 0 0 0 0 0 0 0 0 0 0 0 0 0 0 0 0
0 0 0 0 0 0 0 0 0 0 0 0 0 0 0 0 0 0 0 0 0 0 0 0 0 0 0 0 0 0 0 0 0 0 0 0 0 0 0 0 0 0 0 0 0 0 0 0 0
0 0 0 0 0 0 0 0 0 0 0 0 0 0 0 0 0 0 0 0 0 0 0 0 0 0 0 0 0 0 0 0 0 0 0 0 0 0 0 0 0 0 0 0 0 0 0 0 0
0 0 0 0 0 0 0 0 0 0 0 0 0 0 0 0 0 0 0 0 0 0 0 0 0 0 0 0 0 0 0 0 0 0 0 0 0 0 0 0 0 0 0 0 0 0 0 0 0
Wind_Speed_500mb
11 13 12 9 12 7 8 12 3 12 12 8 10 5 19 17 17 8 28 23 36 34 30 28 25 18 17 21 22 21 17 19 16 17 23 24 23 25 29 30 26 25 25 22 20 21 19 20 23
8 9 9 10 10 11 13 14 15 16 16 10 7 3 2 20 17 20 32 34 38 36 30 21 20 19 17 21 22 23 21 19 15 19 24 22 22 25 31 30 21 27 28 27 25 22 23 26 26
8 5 16 6 10 10 13 17 19 13 14 11 6 4 7 13 15 30 20 42 37 33 29 23 20 21 21 22 23 24 24 19 12 16 21 21 21 22 30 29 23 24 26 27 28 24 26 27 29
2 8 11 14 17 5 6 19 26 21 9 6 3 12 11 8 24 15 37 41 38 33 26 26 22 20 22 24 24 25 26 18 9 13 19 20 18 19 23 26 25 19 24 28 27 24 26 27 26
9 13 15 15 13 5 4 17 20 20 18 16 8 12 9 11 17 24 41 40 36 33 27 27 23 20 20 22 21 21 22 21 11 13 14 16 15 16 17 18 23 17 19 22 22 21 22 25 26
18 16 14 20 19 10 9 17 22 17 16 13 10 9 12 15 23 32 38 38 33 32 30 29 26 21 19 18 18 19 19 19 12 10 12 15 13 13 15 15 15 18 18 22 17 19 19 25 21
25 17 24 24 17 13 12 19 21 17 14 14 3 10 9 17 25 36 38 35 33 31 28 30 27 24 21 19 17 17 16 17 12 9 11 13 12 11 14 14 20 19 14 14 14 16 18 23 24
14 21 23 14 19 14 19 24 14 15 14 11 7 10 13 25 31 37 37 35 33 32 28 26 26 24 21 19 18 16 14 13 11 9 9 10 9 9 11 12 14 18 15 10 13 15 16 19 20
9 15 20 23 20 16 26 20 12 6 6 10 11 6 14 33 34 37 38 37 34 33 30 27 26 25 22 21 20 18 16 13 10 8 6 5 7 7 8 10 7 9 13 9 8 10 11 11 10
16 20 26 13 15 21 33 23 21 14 15 14 14 9 22 30 36 39 43 43 40 38 45 31 29 27 27 24 24 22 19 15 14 12 9 6 5 6 7 9 8 6 10 13 10 9 8 9 6
18 21 9 13 12 11 26 18 17 15 17 17 23 23 26 31 32 37 43 44 43 41 47 45 38 31 30 28 28 25 23 21 19 16 13 10 10 9 9 9 9 8 7 9 10 8 5 5 7
14 4 4 12 11 15 25 19 16 20 12 7 9 22 28 32 35 35 41 45 46 44 43 47 44 41 35 31 30 25 26 25 22 21 18 16 14 13 11 10 10 9 8 9 10 9 6 4 2
14 14 8 10 13 12 17 14 4 18 15 11 12 20 26 30 32 31 33 38 41 43 44 49 50 47 44 43 36 31 29 30 27 26 24 21 18 16 15 14 14 12 12 11 11 10 8 5 3
13 19 15 11 14 10 13 11 7 9 13 16 16 15 22 28 33 32 35 38 43 43 43 43 51 50 49 48 46 41 37 33 34 32 29 27 24 22 21 19 18 16 14 11 10 11 9 7 3
23 15 10 14 10 6 4 13 20 16 12 12 16 19 24 27 31 39 36 39 40 41 41 47 47 48 49 47 47 49 45 40 38 37 36 33 31 28 27 25 23 20 19 15 13 13 10 12 11
15 11 15 13 12 5 10 22 25 11 16 27 28 24 24 29 33 34 37 36 38 39 42 42 46 46 47 44 43 44 46 45 42 36 37 39 38 36 33 32 28 26 25 24 21 19 17 21 24
18 23 26 11 12 6 17 13 11 8 10 13 18 23 27 26 30 33 36 38 39 40 40 41 43 48 49 47 47 47 46 45 43 41 38 33 37 40 39 38 34 35 34 34 34 31 32 31 35
30 33 17 28 15 15 16 25 11 11 9 13 19 16 20 30 29 29 36 37 39 40 41 42 44 47 49 53 55 55 55 54 51 50 47 43 38 37 40 40 43 44 43 43 42 42 42 45 45
26 29 22 16 7 15 23 28 30 31 25 28 25 25 24 24 19 21 28 32 38 43 44 45 47 48 49 56 61 63 64 61 60 58 55 51 51 44 44 43 47 46 48 49 48 49 51 51 54
15 27 21 10 7 7 6 24 27 31 36 36 33 31 30 27 24 25 30 35 38 40 45 48 49 50 51 58 62 65 65 65 62 62 62 56 55 53 54 52 53 52 45 46 46 51 57 58 62
15 24 19 3 10 2 10 26 28 26 36 31 27 28 24 24 26 24 25 34 41 46 50 52 52 52 51 51 59 59 59 61 61 61 63 64 57 58 60 61 60 62 61 57 59 62 63 65 68
19 6 15 18 11 9 3 10 8 15 19 17 20 18 17 15 17 24 26 27 32 39 46 50 56 60 57 53 54 51 57 60 63 60 58 58 59 58 60 63 63 63 63 67 69 70 74 86 76
8 11 12 9 7 5 14 10 12 7 14 20 12 10 5 2 6 7 12 17 19 22 29 35 40 40 51 58 55 53 52 51 43 39 43 46 49 47 49 54 57 57 61 57 62 65 70 67 66
27 23 16 9 6 11 22 17 12 16 9 20 20 12 10 6 7 9 11 11 9 8 8 13 21 27 31 41 50 50 42 38 38 35 36 39 45 47 45 44 46 47 51 55 55 56 57 63 68
13 28 8 9 9 12 5 9 21 3 7 12 21 15 13 12 10 10 10 9 7 6 6 3 3 6 12 23 32 38 40 35 39 41 41 41 43 47 45 43 45 50 50 52 56 59 62 62 64
29 30 10 13 11 7 5 14 9 2 11 10 6 12 15 14 11 9 10 9 8 8 7 6 3 2 4 9 18 27 32 38 36 32 31 30 29 36 37 38 43 47 49 52 54 61 64 61 71
16 14 6 10 3 2 13 11 16 17 12 15 16 19 19 14 12 12 11 11 10 9 9 9 9 7 5 5 6 9 11 15 19 24 27 29 31 37 43 42 43 46 50 53 56 62 66 67 67
13 23 8 7 8 9 10 13 15 11 19 20 22 24 19 15 13 13 14 15 15 15 15 15 15 14 13 11 10 9 8 7 4 1 5 9 13 18 23 27 31 36 42 48 53 58 62 65 68
11 11 8 6 5 7 5 9 4 5 20 22 25 26 26 21 18 17 19 20 21 21 21 21 21 21 21 19 18 16 13 10 7 4 2 5 9 13 17 22 28 33 37 42 47 53 57 62 65
11 21 24 11 11 10 4 8 4 3 14 30 30 29 26 24 23 21 22 23 23 22 23 22 21 19 18 16 13 10 7 5 4 5 9 13 18 20 23 26 30 35 40 45 51 56 59 63 66
Wind_Direction_500mb
332 345 334 283 238 250 137 174 53 147 157 75 101 334 29 25 9 42 137 138 144 146 160 148 146 133 126 123 119 124 119 103 92 83 83 95 97 95 91 94 90 90 97 103 104 104 105 106 119
304 328 291 266 257 209 161 141 185 163 88 135 131 127 140 77 55 124 144 141 144 146 142 149 144 128 126 125 119 119 116 109 99 73 69 94 99 93 95 96 83 88 90 94 97 99 95 97 103
286 293 270 263 260 245 144 170 151 117 139 168 152 18 38 72 94 134 161 147 149 148 144 149 141 132 131 127 123 125 128 124 115 79 79 88 96 93 102 105 93 89 92 97 98 94 97 97 100
236 237 241 245 204 65 12 168 135 151 150 171 311 117 93 85 137 147 156 152 150 151 157 153 143 130 134 121 124 128 129 133 134 91 81 85 95 97 94 102 104 98 93 92 96 89 93 95 92
197 246 241 231 238 101 174 149 166 180 157 165 207 112 91 129 146 145 155 156 158 152 174 157 145 141 132 122 122 120 137 139 142 98 86 82 90 95 93 97 108 102 96 96 98 93 98 99 100
216 246 230 221 202 152 152 165 188 179 158 137 198 152 109 150 147 152 159 160 161 159 168 162 154 147 137 130 130 128 135 150 147 116 92 82 85 93 98 100 98 96 90 95 98 85 89 102 93
233 212 227 216 175 175 158 170 199 178 165 172 133 171 114 157 159 157 163 165 165 169 165 170 166 159 154 147 144 140 142 152 143 118 95 87 89 94 96 103 107 114 120 105 88 82 88 96 98
226 234 220 236 185 182 156 168 207 188 162 137 197 163 169 170 164 160 165 171 170 178 174 173 177 172 170 165 163 160 159 157 150 131 99 86 86 89 90 101 122 133 141 105 89 81 77 86 93
204 225 209 207 206 150 160 176 181 180 154 178 182 92 121 162 166 162 171 180 179 183 181 182 185 180 186 187 183 179 178 173 165 160 141 107 103 111 115 115 133 139 143 131 120 104 92 86 88
221 215 213 191 190 161 170 195 171 176 167 198 186 158 143 162 171 174 179 188 189 192 185 187 186 187 192 195 196 196 194 189 193 194 184 161 159 161 178 162 169 165 155 162 150 133 117 82 35
196 206 129 159 145 161 164 186 176 198 189 198 200 184 168 173 184 187 191 193 197 201 202 200 190 198 197 200 205 208 206 205 207 210 204 201 207 195 196 190 185 184 161 149 164 163 150 170 165
195 139 170 156 148 152 171 163 193 207 85 100 162 180 179 184 193 198 199 200 200 203 212 210 212 205 206 210 212 216 217 218 220 222 221 219 220 212 206 204 194 196 183 188 186 190 189 192 178
228 140 126 147 137 155 150 176 203 212 183 169 164 172 190 196 202 205 207 209 209 207 209 221 220 221 222 218 220 213 219 227 229 232 231 230 228 225 219 213 208 205 200 198 197 197 191 178 157
161 146 139 158 143 139 193 170 224 188 180 203 216 205 204 209 209 206 206 210 211 213 214 217 227 229 229 230 230 222 227 233 231 237 238 236 237 235 232 227 220 213 201 196 201 194 199 205 192
140 133 154 175 173 120 191 216 226 169 166 194 215 221 221 219 217 213 213 212 213 216 216 220 229 229 231 233 235 234 235 233 242 240 242 241 241 241 239 237 232 225 208 197 198 200 213 219 230
176 172 189 158 182 158 202 244 216 190 218 241 247 239 230 222 220 220 217 219 216 214 217 227 228 228 231 234 235 236 236 239 237 242 245 243 242 243 242 241 240 240 230 220 215 226 242 239 243
198 205 208 169 211 154 219 238 133 216 203 241 240 238 229 234 225 222 222 218 219 219 218 219 232 231 231 234 236 237 237 238 237 239 242 248 243 242 247 242 244 246 248 244 240 240 254 265 266
190 224 199 215 180 215 204 248 186 203 217 239 249 235 223 226 227 229 231 223 223 220 221 223 225 234 235 234 236 239 240 241 241 240 243 244 248 244 245 239 238 244 244 250 256 255 259 260 265
212 209 208 197 105 221 224 250 252 245 234 251 243 239 231 226 215 212 223 230 231 230 225 225 225 228 229 236 235 237 242 245 246 248 248 246 247 249 247 244 243 244 249 256 258 260 261 262 264
194 204 192 123 135 220 243 262 260 251 247 242 246 239 234 231 225 235 238 232 235 236 237 235 232 230 229 242 244 243 247 251 253 255 256 255 251 248 252 248 247 249 249 250 255 260 262 264 264
186 199 171 197 145 163 292 268 242 238 247 247 244 245 245 239 238 235 235 242 238 240 241 242 239 233 229 230 248 242 240 250 248 250 255 257 256 251 250 254 253 252 254 256 257 261 264 267 271
189 141 137 137 170 234 217 267 166 211 228 204 213 213 221 227 243 243 236 238 239 236 240 244 244 239 234 225 233 244 241 240 250 257 262 262 265 257 254 256 258 261 261 261 266 268 267 270 274
165 159 157 148 193 292 191 254 241 123 249 218 166 162 173 210 191 192 209 226 242 244 244 245 242 244 240 233 228 229 245 244 249 257 265 263 269 267 258 256 256 260 263 262 265 270 272 269 274
136 121 108 127 189 246 230 222 244 221 231 137 147 130 124 118 125 143 151 161 184 199 222 234 238 241 240 232 227 230 229 244 238 240 244 263 268 272 269 264 259 263 264 265 268 274 274 272 281
186 166 155 191 196 237 67 202 249 156 152 174 152 130 119 123 124 116 134 141 141 125 114 131 202 247 244 236 228 229 230 233 243 242 243 246 261 271 271 272 272 271 271 271 273 274 276 276 279
192 193 173 188 192 176 106 227 233 65 105 153 181 137 125 123 131 140 138 138 140 137 134 127 138 181 226 233 227 225 220 223 233 238 240 237 242 261 269 274 271 273 275 275 275 274 273 275 274
173 196 75 109 49 219 196 245 276 207 227 201 173 155 141 134 131 136 139 140 137 133 131 125 121 123 132 149 174 206 229 247 255 254 255 254 256 254 259 264 266 266 269 272 274 273 273 276 277
210 144 154 223 174 226 212 256 244 209 189 171 166 160 146 143 141 139 137 133 129 123 116 112 107 108 109 108 110 113 117 115 108 198 276 278 282 279 281 282 280 277 276 276 273 271 273 274 276
157 183 209 216 192 206 224 229 40 241 165 166 162 160 156 151 150 146 137 131 126 121 117 116 117 117 115 110 102 99 97 92 89 73 341 295 281 285 285 288 290 290 289 287 284 283 282 281 280
261 213 184 186 198 240 70 253 100 122 156 161 157 157 155 161 153 149 140 131 128 128 126 123 120 118 116 111 106 100 87 61 17 336 318 311 309 304 299 297 295 293 291 290 290 289 287 285 284
Wind_Speed_850mb
11 13 12 9 12 7 8 12 3 12 12 8 10 5 19 17 17 8 28 23 36 34 30 28 25 18 17 21 22 21 17 19 16 17 23 24 23 25 29 30 26 25 25 22 20 21 19 20 23
8 9 9 10 10 11 13 14 15 16 16 10 7 3 2 20 17 20 32 34 38 36 30 21 20 19 17 21 22 23 21 19 15 19 24 22 22 25 31 30 21 27 28 27 25 22 23 26 26
8 5 16 6 10 10 13 17 19 13 14 11 6 4 7 13 15 30 20 42 37 33 29 23 20 21 21 22 23 24 24 19 12 16 21 21 21 22 30 29 23 24 26 27 28 24 26 27 29
2 8 11 14 17 5 6 19 26 21 9 6 3 12 11 8 24 15 37 41 38 33 26 26 22 20 22 24 24 25 26 18 9 13 19 20 18 19 23 26 25 19 24 28 27 24 26 27 26
9 13 15 15 13 5 4 17 20 20 18 16 8 12 9 11 17 24 41 40 36 33 27 27 23 20 20 22 21 21 22 21 11 13 14 16 15 16 17 18 23 17 19 22 22 21 22 25 26
18 16 14 20 19 10 9 17 22 17 16 13 10 9 12 15 23 32 38 38 33 32 30 29 26 21 19 18 18 19 19 19 12 10 12 15 13 13 15 15 15 18 18 22 17 19 19 25 21
25 17 24 24 17 13 12 19 21 17 14 14 3 10 9 17 25 36 38 35 33 31 28 30 27 24 21 19 17 17 16 17 12 9 11 13 12 11 14 14 20 19 14 14 14 16 18 23 24
14 21 23 14 19 14 19 24 14 15 14 11 7 10 13 25 31 37 37 35 33 32 28 26 26 24 21 19 18 16 14 13 11 9 9 10 9 9 11 12 14 18 15 10 13 15 16 19 20
9 15 20 23 20 16 26 20 12 6 6 10 11 6 14 33 34 37 38 37 34 33 30 27 26 25 22 21 20 18 16 13 10 8 6 5 7 7 8 10 7 9 13 9 8 10 11 11 10
16 20 26 13 15 21 33 23 21 14 15 14 14 9 22 30 36 39 43 43 40 38 45 31 29 27 27 24 24 22 19 15 14 12 9 6 5 6 7 9 8 6 10 13 10 9 8 9 6
18 21 9 13 12 11 26 18 17 15 17 17 23 23 26 31 32 37 43 44 43 41 47 45 38 31 30 28 28 25 23 21 19 16 13 10 10 9 9 9 9 8 7 9 10 8 5 5 7
14 4 4 12 11 15 25 19 16 20 12 7 9 22 28 32 35 35 41 45 46 44 43 47 44 41 35 31 30 25 26 25 22 21 18 16 14 13 11 10 10 9 8 9 10 9 6 4 2
14 14 8 10 13 12 17 14 4 18 15 11 12 20 26 30 32 31 33 38 41 43 44 49 50 47 44 43 36 31 29 30 27 26 24 21 18 16 15 14 14 12 12 11 11 10 8 5 3
13 19 15 11 14 10 13 11 7 9 13 16 16 15 22 28 33 32 35 38 43 43 43 43 51 50 49 48 46 41 37 33 34 32 29 27 24 22 21 19 18 16 14 11 10 11 9 7 3
23 15 10 14 10 6 4 13 20 16 12 12 16 19 24 27 31 39 36 39 40 41 41 47 47 48 49 47 47 49 45 40 38 37 36 33 31 28 27 25 23 20 19 15 13 13 10 12 11
15 11 15 13 12 5 10 22 25 11 16 27 28 24 24 29 33 34 37 36 38 39 42 42 46 46 47 44 43 44 46 45 42 36 37 39 38 36 33 32 28 26 25 24 21 19 17 21 24
18 23 26 11 12 6 17 13 11 8 10 13 18 23 27 26 30 33 36 38 39 40 40 41 43 48 49 47 47 47 46 45 43 41 38 33 37 40 39 38 34 35 34 34 34 31 32 31 35
30 33 17 28 15 15 16 25 11 11 9 13 19 16 20 30 29 29 36 37 39 40 41 42 44 47 49 53 55 55 55 54 51 50 47 43 38 37 40 40 43 44 43 43 42 42 42 45 45
26 29 22 16 7 15 23 28 30 31 25 28 25 25 24 24 19 21 28 32 38 43 44 45 47 48 49 56 61 63 64 61 60 58 55 51 51 44 44 43 47 46 48 49 48 49 51 51 54
15 27 21 10 7 7 6 24 27 31 36 36 33 31 30 27 24 25 30 35 38 40 45 48 49 50 51 58 62 65 65 65 62 62 62 56 55 53 54 52 53 52 45 46 46 51 57 58 62
15 24 19 3 10 2 10 26 28 26 36 31 27 28 24 24 26 24 25 34 41 46 50 52 52 52 51 51 59 59 59 61 61 61 63 64 57 58 60 61 60 62 61 57 59 62 63 65 68
19 6 15 18 11 9 3 10 8 15 19 17 20 18 17 15 17 24 26 27 32 39 46 50 56 60 57 53 54 51 57 60 63 60 58 58 59 58 60 63 63 63 63 67 69 70 74 86 76
8 11 12 9 7 5 14 10 12 7 14 20 12 10 5 2 6 7 12 17 19 22 29 35 40 40 51 58 55 53 52 51 43 39 43 46 49 47 49 54 57 57 61 57 62 65 70 67 66
27 23 16 9 6 11 22 17 12 16 9 20 20 12 10 6 7 9 11 11 9 8 8 13 21 27 31 41 50 50 42 38 38 35 36 39 45 47 45 44 46 47 51 55 55 56 57 63 68
13 28 8 9 9 12 5 9 21 3 7 12 21 15 13 12 10 10 10 9 7 6 6 3 3 6 12 23 32 38 40 35 39 41 41 41 43 47 45 43 45 50 50 52 56 59 62 62 64
29 30 10 13 11 7 5 14 9 2 11 10 6 12 15 14 11 9 10 9 8 8 7 6 3 2 4 9 18 27 32 38 36 32 31 30 29 36 37 38 43 47 49 52 54 61 64 61 71
16 14 6 10 3 2 13 11 16 17 12 15 16 19 19 14 12 12 11 11 10 9 9 9 9 7 5 5 6 9 11 15 19 24 27 29 31 37 43 42 43 46 50 53 56 62 66 67 67
13 23 8 7 8 9 10 13 15 11 19 20 22 24 19 15 13 13 14 15 15 15 15 15 15 14 13 11 10 9 8 7 4 1 5 9 13 18 23 27 31 36 42 48 53 58 62 65 68
11 11 8 6 5 7 5 9 4 5 20 22 25 26 26 21 18 17 19 20 21 21 21 21 21 21 21 19 18 16 13 10 7 4 2 5 9 13 17 22 28 33 37 42 47 53 57 62 65
11 21 24 11 11 10 4 8 4 3 14 30 30 29 26 24 23 21 22 23 23 22 23 22 21 19 18 16 13 10 7 5 4 5 9 13 18 20 23 26 30 35 40 45 51 56 59 63 66
Wind_Direction_850mb
332 345 334 283 238 250 137 174 53 147 157 75 101 334 29 25 9 42 137 138 144 146 160 148 146 133 126 123 119 124 119 103 92 83 83 95 97 95 91 94 90 90 97 103 104 104 105 106 119
304 328 291 266 257 209 161 141 185 163 88 135 131 127 140 77 55 124 144 141 144 146 142 149 144 128 126 125 119 119 116 109 99 73 69 94 99 93 95 96 83 88 90 94 97 99 95 97 103
286 293 270 263 260 245 144 170 151 117 139 168 152 18 38 72 94 134 161 147 149 148 144 149 141 132 131 127 123 125 128 124 115 79 79 88 96 93 102 105 93 89 92 97 98 94 97 97 100
236 237 241 245 204 65 12 168 135 151 150 171 311 117 93 85 137 147 156 152 150 151 157 153 143 130 134 121 124 128 129 133 134 91 81 85 95 97 94 102 104 98 93 92 96 89 93 95 92
197 246 241 231 238 101 174 149 166 180 157 165 207 112 91 129 146 145 155 156 158 152 174 157 145 141 132 122 122 120 137 139 142 98 86 82 90 95 93 97 108 102 96 96 98 93 98 99 100
216 246 230 221 202 152 152 165 188 179 158 137 198 152 109 150 147 152 159 160 161 159 168 162 154 147 137 130 130 128 135 150 147 116 92 82 85 93 98 100 98 96 90 95 98 85 89 102 93
233 212 227 216 175 175 158 170 199 178 165 172 133 171 114 157 159 157 163 165 165 169 165 170 166 159 154 147 144 140 142 152 143 118 95 87 89 94 96 103 107 114 120 105 88 82 88 96 98
226 234 220 236 185 182 156 168 207 188 162 137 197 163 169 170 164 160 165 171 170 178 174 173 177 172 170 165 163 160 159 157 150 131 99 86 86 89 90 101 122 133 141 105 89 81 77 86 93
204 225 209 207 206 150 160 176 181 180 154 178 182 92 121 162 166 162 171 180 179 183 181 182 185 180 186 187 183 179 178 173 165 160 141 107 103 111 115 115 133 139 143 131 120 104 92 86 88
221 215 213 191 190 161 170 195 171 176 167 198 186 158 143 162 171 174 179 188 189 192 185 187 186 187 192 195 196 196 194 189 193 194 184 161 159 161 178 162 169 165 155 162 150 133 117 82 35
196 206 129 159 145 161 164 186 176 198 189 198 200 184 168 173 184 187 191 193 197 201 202 200 190 198 197 200 205 208 206 205 207 210 204 201 207 195 196 190 185 184 161 149 164 163 150 170 165
195 139 170 156 148 152 171 163 193 207 85 100 162 180 179 184 193 198 199 200 200 203 212 210 212 205 206 210 212 216 217 218 220 222 221 219 220 212 206 204 194 196 183 188 186 190 189 192 178
228 140 126 147 137 155 150 176 203 212 183 169 164 172 190 196 202 205 207 209 209 207 209 221 220 221 222 218 220 213 219 227 229 232 231 230 228 225 219 213 208 205 200 198 197 197 191 178 157
161 146 139 158 143 139 193 170 224 188 180 203 216 205 204 209 209 206 206 210 211 213 214 217 227 229 229 230 230 222 227 233 231 237 238 236 237 235 232 227 220 213 201 196 201 194 199 205 192
140 133 154 175 173 120 191 216 226 169 166 194 215 221 221 219 217 213 213 212 213 216 216 220 229 229 231 233 235 234 235 233 242 240 242 241 241 241 239 237 232 225 208 197 198 200 213 219 230
176 172 189 158 182 158 202 244 216 190 218 241 247 239 230 222 220 220 217 219 216 214 217 227 228 228 231 234 235 236 236 239 237 242 245 243 242 243 242 241 240 240 230 220 215 226 242 239 243
198 205 208 169 211 154 219 238 133 216 203 241 240 238 229 234 225 222 222 218 219 219 218 219 232 231 231 234 236 237 237 238 237 239 242 248 243 242 247 242 244 246 248 244 240 240 254 265 266
190 224 199 215 180 215 204 248 186 203 217 239 249 235 223 226 227 229 231 223 223 220 221 223 225 234 235 234 236 239 240 241 241 240 243 244 248 244 245 239 238 244 244 250 256 255 259 260 265
212 209 208 197 105 221 224 250 252 245 234 251 243 239 231 226 215 212 223 230 231 230 225 225 225 228 229 236 235 237 242 245 246 248 248 246 247 249 247 244 243 244 249 256 258 260 261 262 264
194 204 192 123 135 220 243 262 260 251 247 242 246 239 234 231 225 235 238 232 235 236 237 235 232 230 229 242 244 243 247 251 253 255 256 255 251 248 252 248 247 249 249 250 255 260 262 264 264
186 199 171 197 145 163 292 268 242 238 247 247 244 245 245 239 238 235 235 242 238 240 241 242 239 233 229 230 248 242 240 250 248 250 255 257 256 251 250 254 253 252 254 256 257 261 264 267 271
189 141 137 137 170 234 217 267 166 211 228 204 213 213 221 227 243 243 236 238 239 236 240 244 244 239 234 225 233 244 241 240 250 257 262 262 265 257 254 256 258 261 261 261 266 268 267 270 274
165 159 157 148 193 292 191 254 241 123 249 218 166 162 173 210 191 192 209 226 242 244 244 245 242 244 240 233 228 229 245 244 249 257 265 263 269 267 258 256 256 260 263 262 265 270 272 269 274
136 121 108 127 189 246 230 222 244 221 231 137 147 130 124 118 125 143 151 161 184 199 222 234 238 241 240 232 227 230 229 244 238 240 244 263 268 272 269 264 259 263 264 265 268 274 274 272 281
186 166 155 191 196 237 67 202 249 156 152 174 152 130 119 123 124 116 134 141 141 125 114 131 202 247 244 236 228 229 230 233 243 242 243 246 261 271 271 272 272 271 271 271 273 274 276 276 279
192 193 173 188 192 176 106 227 233 65 105 153 181 137 125 123 131 140 138 138 140 137 134 127 138 181 226 233 227 225 220 223 233 238 240 237 242 261 269 274 271 273 275 275 275 274 273 275 274
173 196 75 109 49 219 196 245 276 207 227 201 173 155 141 134 131 136 139 140 137 133 131 125 121 123 132 149 174 206 229 247 255 254 255 254 256 254 259 264 266 266 269 272 274 273 273 276 277
210 144 154 223 174 226 212 256 244 209 189 171 166 160 146 143 141 139 137 133 129 123 116 112 107 108 109 108 110 113 117 115 108 198 276 278 282 279 281 282 280 277 276 276 273 271 273 274 276
157 183 209 216 192 206 224 229 40 241 165 166 162 160 156 151 150 146 137 131 126 121 117 116 117 117 115 110 102 99 97 92 89 73 341 295 281 285 285 288 290 290 289 287 284 283 282 281 280
261 213 184 186 198 240 70 253 100 122 156 161 157 157 155 161 153 149 140 131 128 128 126 123 120 118 116 111 106 100 87 61 17 336 318 311 309 304 299 297 295 293 291 290 290 289 287 285 284